COSMOS 2251 DEB, 38060

Orbit data source: Space-Track

COSMOS 2251 DEB, 38060 is space debris in LEO originally from a launch on Wed, 16 Jun 1993 UTC launched from the Plesetsk Missile And Space Complex (PKMTR). The debris from Iridium 33, an American commercial communications satellite, has been tracked extensively since its accidental collision with the defunct Russian satellite Cosmos 2251 in 2009. This event, occurring at high speed in low Earth orbit (LEO), generated thousands of pieces of space debris, significantly increasing the risk of further collisions. The Iridium 33 debris cloud has impacted space traffic management and orbital debris mitigation strategies, making it a subject of ongoing study in space situational awareness.

Loading next visibility...
Identifier
38060, 1993-036BRS
Orbit
LEO
Country
Flag of CISCIS
Related business
Manufacturer
Unknown
Mission
Spacecraft
Bus & Motor
Unknown
Mass
Unknown
Launch date (UTC)
1993-06-16 (32 years ago)
Launch vehicle
Unknown
Launch site
Plesetsk Missile And Space Complex (PKMTR)
Object type
Payload
Rocket body
Debris
Shape & HBR
Unknown shape, 0.1 m
Radar Cross Section
Small (<0.1 m²)

Expand to show TLE details & history
Last TLE update: 2 days ago

TLE from 2 days ago
0 COSMOS 2251 DEB
1 38060U 93036BRS 25306.47005300  .00002420  00000-0  46084-3 0  9996
2 38060  74.0452  12.5802 0058208 130.7331 229.8912 14.63555303713751
Epoch: 2025-11-02T11:16Z
TLE epoch observation values (Epoch: 2025-11-02T11:16:52.579Z)
Latitude
-0.00006°
Longitude
161.37578°
Altitude
710.981 km
Speed
7.486 km/s
True Right ascension
00h 50m 19s
True Declination
0° 00' 00"
Sunlit
Object was in full shadow at epoch
Visualization orbit readout
Latitude
Unknown
Longitude
Unknown
Altitude
Unknown
Speed
Unknown
Apparent Right ascension
Unknown
Apparent Declination
Unknown
Sunlit
N/A
Visualization observer readout
Local Sidereal Time
15:53:23
Azimuth
Unknown
Elevation
Unknown
Doppler factor
Unknown
Orbital elements
Apogee altitude
720.39 km
Perigee altitude
638.23 km
Semi-major axis
7,057.447 km
Eccentricity
0.00582
Inclination
74.0452°
RAAN
12.5802°
Arg. of periapsis
130.7331°
True anomaly
229.38344°
Mean anomaly
229.8912°
Eccentric anomaly
229.63708°
Mean motion
3.66076 °/min
Orbital period
98.34 mins
BSTAR
0.00046084

Documentation

Showing up to 5 results
|